GW5785 Weather Reports


time (UTC)temp
F
wind
direction
speed
knots
gust
knots
rain 1hr
in
rain 24hr
in
rain mn
in
humidity
%
barometer
mb
20260508142233 47 282 3.5 5.2 0.00 0.03 0.03 58 1023.7
20260508141730 48 268 2.6 2.6 0.00 0.03 0.03 59 1023.7
20260508141227 46 256 1.7 2.6 0.00 0.03 0.03 62 1023.8
20260508140725 46 247 2.6 5.2 0.00 0.03 0.03 61 1023.9
20260508140221 46 251 1.7 6.1 0.00 0.03 0.03 63 1023.7
20260508135717 47 256 2.6 7.0 0.00 0.03 0.03 60 1023.7
20260508135213 47 309 3.5 5.2 0.00 0.03 0.03 61 1023.8
20260508134709 46 259 0.9 3.5 0.00 0.03 0.03 60 1023.7
20260508134207 46 287 7.0 7.8 0.00 0.03 0.03 63 1023.9
20260508133703 46 263 2.6 5.2 0.00 0.03 0.03 63 1024.0
20260508133201 46 323 3.5 6.1 0.00 0.03 0.03 67 1023.8
20260508132658 46 298 2.6 7.0 0.00 0.03 0.03 66 1023.9
20260508132155 45 263 2.6 6.1 0.00 0.03 0.03 68 1023.8
20260508131651 44 293 3.5 8.7 0.00 0.03 0.03 70 1024.0
20260508131147 43 282 5.2 7.8 0.00 0.03 0.03 71 1023.8
20260508130644 45 291 5.2 8.7 0.00 0.03 0.03 69 1023.8
20260508130142 45 287 4.3 7.8 0.00 0.03 0.03 70 1023.8
20260508125637 46 249 2.6 5.2 0.00 0.03 0.03 65 1023.8
20260508125134 46 301 2.6 3.5 0.00 0.03 0.03 66 1024.1
20260508124632 47 273 2.6 3.5 0.00 0.03 0.03 64 1023.8
20260508124129 46 217 3.5 6.1 0.00 0.03 0.03 67 1023.7
20260508123627 45 255 3.5 5.2 0.00 0.03 0.03 65 1023.9
20260508123124 46 262 2.6 5.2 0.00 0.03 0.03 64 1024.0
20260508122620 47 198 7.8 8.7 0.00 0.03 0.03 59 1023.7
20260508122118 49 241 4.3 7.8 0.00 0.03 0.03 51 1023.9
20260508121616 49 134 2.6 5.2 0.00 0.03 0.03 51 1023.7
20260508121114 48 280 4.3 7.0 0.00 0.03 0.03 53 1023.6
20260508120611 47 126 4.3 7.0 0.00 0.03 0.03 54 1023.7
20260508120109 46 209 1.7 7.0 0.00 0.03 0.03 56 1023.7
20260508115606 49 286 1.7 8.7 0.00 0.03 0.03 56 1023.6
20260508115103 48 113 2.6 6.1 0.00 0.03 0.03 54 1023.9
20260508114600 48 236 1.7 5.2 0.00 0.03 0.03 55 1023.7
20260508114056 48 134 3.5 6.1 0.00 0.03 0.03 56 1023.7
20260508113553 47 126 1.7 1.7 0.00 0.03 0.03 58 1024.0
20260508113052 44 85 2.6 3.5 0.00 0.03 0.03 64 1023.9
20260508112547 45 113 1.7 3.5 0.00 0.03 0.03 66 1023.7
20260508112044 44 116 3.5 7.0 0.00 0.03 0.03 67 1023.8
20260508111542 42 119 2.6 6.1 0.00 0.03 0.03 73 1023.8
20260508111038 40 96 2.6 7.8 0.00 0.03 0.03 77 1023.9
20260508110536 40 121 6.1 11.3 0.00 0.03 0.03 78 1023.9
20260508110032 40 124 7.0 13.0 0.00 0.03 0.03 77 1024.0
20260508105527 41 121 11.3 13.0 0.00 0.03 0.03 75 1023.7
20260508105025 43 130 3.5 6.1 0.00 0.03 0.03 66 1023.7
20260508104523 42 197 0.0 1.7 0.00 0.03 0.03 68 1023.6
20260508104018 42 254 0.9 1.7 0.00 0.03 0.03 70 1023.5
20260508103516 41 285 3.5 3.5 0.00 0.03 0.03 69 1023.7
20260508103013 41 286 1.7 3.5 0.00 0.03 0.03 73 1023.4
20260508102511 41 279 2.6 6.1 0.00 0.03 0.03 73 1023.3
20260508102008 41 287 3.5 6.1 0.00 0.03 0.03 72 1023.3
20260508101506 42 328 5.2 9.6 0.00 0.03 0.03 72 1023.4
20260508101002 44 305 2.6 3.5 0.00 0.03 0.03 66 1023.4
20260508100501 45 260 1.7 3.5 0.00 0.03 0.03 62 1023.2
20260508095957 44 271 2.6 2.6 0.00 0.03 0.03 64 1023.0
20260508095454 45 286 1.7 2.6 0.00 0.03 0.03 61 1023.0
20260508094951 45 238 1.7 2.6 0.00 0.03 0.03 62 1023.1
20260508094448 44 243 1.7 2.6 0.00 0.03 0.03 65 1023.2
20260508093945 45 109 0.0 0.0 0.00 0.03 0.03 67 1023.0
20260508093442 43 193 0.0 0.0 0.00 0.03 0.03 68 1023.1
20260508092940 42 302 0.0 0.0 0.00 0.03 0.03 69 1023.0
20260508092437 42 311 0.0 1.7 0.00 0.03 0.03 69 1023.1
20260508091936 42 282 0.9 3.5 0.00 0.03 0.03 69 1023.1
20260508091432 43 254 0.9 2.6 0.00 0.03 0.03 71 1022.8
20260508090929 42 271 1.7 1.7 0.00 0.03 0.03 73 1023.0
20260508090428 42 263 1.7 1.7 0.00 0.03 0.03 74 1022.9
20260508085923 42 309 1.7 2.6 0.00 0.03 0.03 71 1023.2
20260508085420 42 242 1.7 2.6 0.00 0.03 0.03 71 1022.8
20260508084917 43 236 1.7 3.5 0.00 0.03 0.03 72 1022.9
20260508084413 44 285 1.7 2.6 0.00 0.03 0.03 68 1022.9
20260508083912 43 197 0.9 1.7 0.00 0.03 0.03 71 1022.8
20260508083409 43 279 1.7 2.6 0.00 0.03 0.03 71 1022.8
20260508082908 43 200 0.0 0.0 0.00 0.03 0.03 74 1022.9
20260508082406 41 275 0.0 0.0 0.00 0.03 0.03 76 1022.7
20260508081904 41 297 0.9 2.6 0.00 0.03 0.03 77 1022.8
20260508081400 41 84 1.7 1.7 0.00 0.03 0.03 77 1022.6
20260508080857 40 278 0.0 1.7 0.07 0.03 0.03 79 1022.7
20260508080355 40 341 0.0 0.0 0.07 0.03 0.03 80 1022.7
20260508075851 39 126 1.7 2.6 0.00 0.02 0.02 81 1022.4
20260508075348 40 78 2.6 6.1 0.00 0.02 0.02 80 1022.5
20260508074846 40 127 1.7 5.2 0.00 0.02 0.02 79 1022.5
20260508074343 40 86 5.2 7.8 0.00 0.02 0.02 81 1022.6
20260508073840 39 217 2.6 6.1 0.00 0.02 0.02 82 1022.5
20260508073338 39 153 5.2 7.0 0.00 0.02 0.02 81 1022.5
20260508072834 40 27 0.9 7.0 0.00 0.02 0.02 79 1022.3
20260508072331 40 109 4.3 7.8 0.00 0.02 0.02 77 1022.4
20260508071828 41 106 1.7 7.8 0.00 0.02 0.02 75 1022.4
20260508071326 42 305 0.9 6.1 0.00 0.02 0.02 71 1021.9
20260508070824 42 219 4.3 7.0 0.00 0.02 0.02 69 1021.9
20260508070322 43 307 0.9 2.6 0.00 0.02 0.02 66 1021.9
20260508065819 44 249 0.9 2.6 0.00 0.02 0.02 67 1021.7
20260508065317 43 80 0.0 1.7 0.00 0.02 0.02 66 1021.8
20260508064815 42 208 0.0 1.7 0.00 0.02 0.02 69 1021.8
20260508064312 42 301 0.9 1.7 0.00 0.02 0.02 68 1021.6
20260508063809 42 245 1.7 1.7 0.00 0.02 0.02 72 1021.5
20260508063307 42 94 0.9 2.6 0.00 0.02 0.02 68 1021.6
20260508062804 42 130 1.7 2.6 0.00 0.02 0.02 67 1021.6
20260508062305 41 99 0.9 2.6 0.00 0.02 0.02 73 1021.4
20260508061758 40 139 1.7 1.7 0.00 0.02 0.02 77 1021.6
20260508061255 40 164 0.0 0.0 0.00 0.02 0.02 78 1021.4
20260508060752 40 78 3.5 5.2 0.00 0.02 0.02 74 1021.6
20260508060250 40 167 2.6 7.0 0.00 0.02 0.02 75 1021.4
20260508055745 40 132 1.7 2.6 0.00 0.02 0.02 76 1021.4
20260508055242 40 132 1.7 2.6 0.00 0.02 0.02 76 1021.3
20260508054739 40 155 1.7 3.5 0.00 0.02 0.02 77 1021.3
20260508054237 39 145 3.5 6.1 0.00 0.02 0.02 77 1021.4
20260508053734 39 128 1.7 7.0 0.00 0.02 0.02 78 1021.4
20260508053231 39 135 3.5 6.1 0.00 0.02 0.02 79 1021.4
20260508052728 38 124 6.1 7.8 0.00 0.02 0.02 80 1021.3
20260508052225 38 90 3.5 7.0 0.00 0.02 0.02 82 1021.2
20260508051721 38 107 2.6 5.2 0.00 0.02 0.02 84 1021.2
20260508051217 38 111 5.2 7.8 0.00 0.02 0.02 84 1021.2
20260508050713 37 138 1.7 7.0 0.00 0.02 0.02 87 1021.1
20260508050211 38 219 1.7 2.6 0.00 0.02 0.02 87 1021.0
20260508045706 37 69 0.0 0.0 0.00 0.02 0.02 87 1020.9
20260508045204 37 87 0.0 0.0 0.00 0.02 0.02 88 1021.0
20260508044701 38 80 0.0 0.0 0.00 0.02 0.02 89 1021.1
20260508044158 37 78 0.0 0.0 0.00 0.02 0.02 90 1021.0
20260508043654 36 43 0.0 0.0 0.00 0.02 0.02 91 1020.7
20260508043152 36 356 0.9 0.9 0.00 0.02 0.02 92 1020.7
20260508042648 36 25 0.9 1.7 0.00 0.02 0.02 92 1020.9
20260508042146 36 42 0.0 0.0 0.00 0.02 0.02 92 1020.8
20260508041642 35 62 0.0 0.0 0.00 0.02 0.02 92 1020.7
20260508041139 35 64 0.9 0.9 0.00 0.02 0.02 92 1020.8
20260508040635 35 29 0.0 0.0 0.00 0.02 0.02 92 1020.8
20260508040133 35 35 0.0 0.0 0.00 0.02 0.02 92 1020.8
20260508035630 35 324 0.0 0.0 0.05 0.02 0.02 92 1020.6
20260508035127 35 21 0.0 0.0 0.05 0.02 0.02 92 1020.6
20260508034624 35 31 0.0 0.9 0.00 0.01 0.01 92 1020.5
20260508034121 35 54 0.0 0.9 0.00 0.01 0.01 92 1020.5
20260508033618 35 116 0.0 0.9 0.00 0.01 0.01 92 1020.5
20260508033116 34 74 0.9 1.7 0.07 0.01 0.01 92 1020.6
20260508032612 34 50 1.7 1.7 0.07 0.01 0.01 92 1020.6
20260508032110 34 58 1.7 1.7 0.00 0.00 0.00 92 1020.6
20260508031607 34 76 1.7 1.7 0.00 0.00 0.00 92 1020.5
20260508031103 34 52 1.7 1.7 0.00 0.00 0.00 92 1020.5
20260508030559 34 76 0.9 1.7 0.00 0.00 0.00 91 1020.4
20260508030058 34 21 1.7 2.6 0.00 0.00 0.00 91 1020.2
20260508025553 34 339 1.7 3.5 0.00 0.00 0.00 91 1020.5
20260508025051 34 327 1.7 1.7 0.00 0.00 0.00 91 1020.6
20260508024546 34 348 0.9 1.7 0.00 0.00 0.00 90 1020.5
20260508024044 34 357 2.6 2.6 0.00 0.00 0.00 90 1020.3
20260508023540 34 350 1.7 2.6 0.00 0.00 0.00 89 1020.4
20260508023038 34 350 1.7 2.6 0.00 0.00 0.00 87 1020.3
20260508022533 34 67 1.7 2.6 0.00 0.00 0.00 86 1020.5
20260508022031 34 20 0.0 0.0 0.00 0.00 0.00 84 1020.6
20260508021526 34 136 0.0 1.7 0.00 0.00 0.00 82 1020.4
20260508021022 34 85 0.0 0.9 0.00 0.00 0.00 82 1020.2
20260508020520 34 346 0.0 0.9 0.00 0.00 0.00 82 1020.1
20260508020018 34 24 1.7 1.7 0.00 0.00 0.00 82 1020.0
20260508015515 34 359 0.0 0.9 0.00 0.00 0.00 82 1020.1
20260508015012 34 34 2.6 2.6 0.00 0.00 0.00 83 1019.9
20260508014508 33 9 0.0 0.0 0.00 0.00 0.00 84 1019.8
20260508014005 33 7 0.0 0.0 0.00 0.00 0.00 84 1019.9
20260508013501 32 10 0.9 1.7 0.00 0.00 0.00 84 1019.9
20260508012958 33 330 0.0 2.6 0.00 0.00 0.00 82 1019.9
20260508012455 33 345 2.6 3.5 0.00 0.00 0.00 83 1019.7
20260508011952 33 12 2.6 2.6 0.00 0.00 0.00 83 1019.8
20260508011450 32 19 0.9 1.7 0.00 0.00 0.00 83 1019.6
20260508010947 33 280 0.0 2.6 0.00 0.00 0.00 81 1019.7
20260508010444 33 37 1.7 3.5 0.00 0.00 0.00 81 1019.6
20260508005942 34 11 1.7 2.6 0.00 0.00 0.00 81 1019.5
20260508005438 34 39 2.6 2.6 0.00 0.00 0.00 81 1019.5
20260508004935 34 34 2.6 2.6 0.00 0.00 0.00 81 1019.3
20260508004431 34 3 2.6 3.5 0.00 0.00 0.00 83 1019.3
20260508003928 33 87 1.7 2.6 0.00 0.00 0.00 83 1019.5
20260508003424 33 43 0.9 1.7 0.00 0.00 0.00 82 1019.2
20260508002922 33 345 1.7 2.6 0.00 0.00 0.00 82 1019.4
20260508002418 33 0 1.7 1.7 0.00 0.00 0.00 83 1019.4
20260508001914 33 33 1.7 1.7 0.00 0.00 0.00 83 1019.2
20260508001411 33 131 0.0 0.0 0.00 0.00 0.00 82 1019.2
20260508000907 35 285 0.0 1.7 0.00 0.00 0.00 81 1019.0
20260508000405 35 7 0.9 2.6 0.00 0.00 0.00 80 1019.0
20260507235900 34 342 1.7 1.7 0.00 0.00 0.00 80 1018.9
20260507235358 34 341 0.9 1.7 0.00 0.00 0.00 80 1019.0
20260507234854 34 351 0.0 0.9 0.00 0.00 0.00 79 1019.0
20260507234351 35 341 0.9 1.7 0.00 0.00 0.00 78 1018.8
20260507233848 35 33 0.9 1.7 0.00 0.00 0.00 78 1018.9
20260507233345 34 0 0.9 1.7 0.00 0.00 0.00 79 1018.7
20260507232843 34 31 1.7 2.6 0.00 0.00 0.00 80 1018.9
20260507232339 34 345 0.0 0.0 0.00 0.00 0.00 80 1018.7
20260507231837 33 0 0.9 2.6 0.00 0.00 0.00 79 1018.8
20260507231333 35 331 2.6 2.6 0.00 0.00 0.00 77 1018.7
20260507230829 34 19 1.7 2.6 0.00 0.00 0.00 77 1018.6
20260507230327 34 357 1.7 3.5 0.00 0.00 0.00 77 1018.5
20260507225827 34 39 2.6 2.6 0.00 0.00 0.00 78 1018.9
20260507225323 34 19 1.7 2.6 0.00 0.00 0.00 80 1018.7
20260507224819 33 39 1.7 3.5 0.00 0.00 0.00 81 1018.5
20260507224316 34 11 0.9 0.9 0.00 0.00 0.00 77 1018.5
20260507223812 34 73 0.0 0.0 0.00 0.00 0.00 77 1018.4
20260507223308 35 346 0.9 0.9 0.00 0.00 0.00 78 1018.5
20260507222806 33 36 1.7 2.6 0.00 0.00 0.00 79 1018.4
20260507222305 33 346 2.6 3.5 0.00 0.00 0.00 78 1018.4
20260507221759 34 19 2.6 2.6 0.00 0.00 0.00 77 1018.4
20260507221255 35 54 1.7 2.6 0.00 0.00 0.00 76 1018.3
20260507220752 35 21 0.0 0.9 0.00 0.00 0.00 76 1018.3
20260507220250 35 71 1.7 2.6 0.00 0.00 0.00 76 1018.3
20260507215746 35 73 1.7 2.6 0.00 0.00 0.00 76 1018.0
20260507215244 35 54 0.0 2.6 0.00 0.00 0.00 76 1018.0
20260507214741 35 26 0.9 3.5 0.00 0.00 0.00 76 1018.0
20260507214238 35 32 1.7 2.6 0.00 0.00 0.00 76 1018.1
20260507213733 35 348 1.7 2.6 0.00 0.00 0.00 77 1018.2
20260507213230 34 59 2.6 2.6 0.00 0.00 0.00 77 1018.0
20260507212726 35 11 1.7 2.6 0.00 0.00 0.00 77 1017.9
20260507212223 35 23 1.7 2.6 0.00 0.00 0.00 76 1018.1
20260507211720 35 347 1.7 2.6 0.00 0.00 0.00 76 1018.0
20260507211216 34 19 0.9 2.6 0.00 0.00 0.00 76 1017.9
20260507210713 36 29 1.7 2.6 0.00 0.00 0.00 75 1017.8
20260507210210 36 19 1.7 3.5 0.00 0.00 0.00 75 1017.9
20260507205706 36 343 2.6 5.2 0.00 0.00 0.00 74 1017.7
20260507205203 36 350 1.7 2.6 0.00 0.00 0.00 73 1017.6
20260507204659 37 358 0.9 2.6 0.00 0.00 0.00 73 1017.8
20260507204157 38 44 0.0 0.0 0.00 0.00 0.00 70 1017.7
20260507203655 37 17 0.0 1.7 0.00 0.00 0.00 72 1017.7
20260507203152 38 30 1.7 2.6 0.00 0.00 0.00 71 1017.7
20260507202647 38 78 0.9 1.7 0.00 0.00 0.00 70 1017.7
20260507202144 37 81 0.9 3.5 0.00 0.00 0.00 71 1017.5
20260507201639 38 50 1.7 3.5 0.00 0.00 0.00 71 1017.4
20260507201136 37 47 0.9 3.5 0.00 0.00 0.00 73 1017.5
20260507200632 38 64 1.7 2.6 0.00 0.00 0.00 73 1017.5
20260507200128 38 78 2.6 3.5 0.00 0.00 0.00 74 1017.3
20260507195625 37 60 0.0 0.0 0.00 0.00 0.00 75 1017.4
20260507195123 38 15 0.0 0.0 0.00 0.00 0.00 74 1017.2
20260507194619 39 352 0.0 0.0 0.00 0.00 0.00 74 1017.0
20260507194115 38 57 0.9 2.6 0.00 0.00 0.00 75 1017.1
20260507193612 39 31 1.7 2.6 0.00 0.00 0.00 76 1017.2
20260507193109 39 42 1.7 2.6 0.00 0.00 0.00 76 1017.0
20260507192605 39 43 1.7 2.6 0.00 0.00 0.00 76 1016.8
20260507192102 39 36 1.7 1.7 0.00 0.00 0.00 76 1017.1
20260507191557 40 16 0.9 0.9 0.00 0.00 0.00 75 1017.0
20260507191055 40 356 1.7 1.7 0.00 0.00 0.00 75 1016.9
20260507190552 40 340 1.7 2.6 0.00 0.00 0.00 75 1016.8
20260507190051 40 352 1.7 1.7 0.00 0.00 0.00 75 1016.9
20260507185549 40 351 2.6 3.5 0.00 0.00 0.00 75 1016.9
20260507185045 40 344 2.6 3.5 0.00 0.00 0.00 74 1016.8
20260507184543 41 338 1.7 2.6 0.00 0.00 0.00 73 1016.8
20260507184041 41 332 0.0 0.9 0.00 0.00 0.00 71 1016.4
20260507183536 41 324 0.9 1.7 0.00 0.00 0.00 71 1016.6
20260507183034 41 332 0.9 2.6 0.00 0.00 0.00 74 1016.7
20260507182530 41 293 1.7 3.5 0.00 0.00 0.00 74 1016.6
20260507182026 41 315 3.5 3.5 0.00 0.00 0.00 73 1016.6
20260507181523 42 338 2.6 3.5 0.00 0.00 0.00 72 1016.6
20260507181020 42 344 1.7 3.5 0.00 0.00 0.00 72 1016.5
20260507180516 43 20 1.7 5.2 0.00 0.00 0.00 70 1016.4
20260507180013 43 297 2.6 2.6 0.00 0.00 0.00 70 1016.3
20260507175509 43 312 4.3 6.1 0.00 0.00 0.00 70 1016.6
20260507175007 43 294 4.3 7.8 0.00 0.00 0.00 72 1016.2
20260507174504 43 276 3.5 5.2 0.00 0.00 0.00 73 1016.1
20260507174001 43 250 2.6 3.5 0.00 0.00 0.00 72 1016.3
20260507173458 44 291 2.6 3.5 0.00 0.00 0.00 70 1016.1
20260507172955 44 243 2.6 3.5 0.00 0.00 0.00 70 1016.3
20260507172451 43 281 1.7 3.5 0.00 0.00 0.00 70 1016.3
20260507171948 43 306 3.5 5.2 0.00 0.00 0.00 71 1016.2
20260507171443 43 293 3.5 6.1 0.00 0.00 0.00 71 1016.0
20260507170941 44 292 4.3 7.0 0.00 0.00 0.00 69 1015.9
20260507170438 44 304 4.3 6.1 0.00 0.00 0.00 68 1016.1
20260507165934 44 291 5.2 8.7 0.00 0.00 0.00 66 1015.9
20260507165430 45 250 1.7 2.6 0.00 0.00 0.00 61 1015.9
20260507164926 46 239 1.7 2.6 0.00 0.00 0.00 57 1015.9
20260507164423 46 231 1.7 2.6 0.00 0.00 0.00 56 1015.9
20260507163920 47 210 1.7 2.6 0.00 0.00 0.00 56 1015.8
20260507163418 46 244 0.0 1.7 0.00 0.00 0.00 56 1015.9
20260507162914 46 240 0.9 1.7 0.00 0.00 0.00 61 1015.6
20260507162409 46 270 1.7 1.7 0.00 0.00 0.00 58 1015.8
20260507161907 46 217 1.7 2.6 0.00 0.00 0.00 53 1015.8
20260507161403 47 186 1.7 3.5 0.00 0.00 0.00 52 1015.7
20260507160900 46 219 0.9 2.6 0.00 0.00 0.00 55 1015.8
20260507160355 45 275 0.9 1.7 0.00 0.00 0.00 56 1015.8
20260507155852 45 244 1.7 2.6 0.00 0.00 0.00 58 1015.6
20260507155348 45 260 0.0 0.0 0.00 0.00 0.00 58 1015.5
20260507154845 45 275 1.7 2.6 0.00 0.00 0.00 58 1015.5
20260507154342 44 307 1.7 2.6 0.00 0.00 0.00 61 1015.6
20260507153839 44 290 1.7 3.5 0.00 0.00 0.00 61 1015.5
20260507153335 44 299 1.7 3.5 0.00 0.00 0.00 62 1015.6
20260507152832 44 286 0.9 1.7 0.00 0.00 0.00 61 1015.7
20260507152328 44 206 1.7 5.2 0.00 0.00 0.00 60 1015.4
20260507151825 44 208 2.6 3.5 0.00 0.00 0.00 62 1015.8
20260507151321 44 238 0.0 0.0 0.00 0.00 0.00 63 1015.5
20260507150818 43 310 0.0 0.0 0.00 0.00 0.00 63 1015.5
20260507150314 44 30 0.0 0.0 0.00 0.00 0.00 64 1015.6
20260507145811 43 103 0.0 1.7 0.00 0.00 0.00 67 1015.5
20260507145307 42 178 1.7 1.7 0.00 0.00 0.00 70 1015.6
20260507144804 42 306 1.7 6.1 0.00 0.00 0.00 68 1015.7
20260507144302 42 269 2.6 5.2 0.00 0.00 0.00 67 1015.5
20260507143758 43 265 2.6 3.5 0.00 0.00 0.00 62 1015.5
20260507143255 43 257 2.6 5.2 0.00 0.00 0.00 64 1015.3
20260507142751 44 309 0.0 1.7 0.00 0.00 0.00 63 1015.4